Flag for Austria Weather past 2 weeks in Wolfsberg, Carinthia, Austria

Now
68 °F

Partly sunny.


Feels Like: 68 °F
Forecast: 55 / 70 °F
Wind: 1 mph from North

Location: Zeltweg

Current Time: May 30, 2015 at 1:26:21 PM

Latest Report: May 30, 2015 at 12:50 PM


Visibility: 19 mi

Pressure: 29.98 "Hg

Humidity: 43%

Dew point: 45 °F

Location of WolfsbergLocation

Historic Weather in Wolfsberg — Graph

°F

Wolfsberg temperature yesterday

Maximum temperature yesterday: 73 °F (at 1:50 PM)
Minimum temperature yesterday: 39 °F (at 5:50 AM)
Average temperature yesterday: 62 °F

Past Weeks' High & Low Weather Summary

 TemperatureHumidityPressure
High73 °F (May 29, 1:50 PM)100% (May 15, 10:50 PM)30.24 "Hg (May 15, 10:50 PM)
Low37 °F (May 28, 5:50 AM)22% (May 29, 2:20 PM)29.77 "Hg (May 19, 5:20 PM)
Average56 °F66%29.99 "Hg
* Reported May 15 12:50 PM — May 30 12:20 PM, Wolfsberg, Weather by CustomWeather, © 2015

Note: Actual official high and low records may vary slightly from our data, if they occured in-between our weather recording intervals... More about our weather records

Advertising

Wolfsberg weather history for previous 24 hours

 ConditionsComfort  
Time TempWeatherWind HumidityBarometerVisibility
12:20 PM
Sat, May 30
66 °FPartly sunny.2 mph49%29.98 "Hg19 mi
11:50 AM66 °FScattered clouds.3 mph52%29.98 "Hg19 mi
11:20 AM63 °FPartly sunny.2 mph59%29.98 "Hg25 mi
10:50 AM61 °FPartly sunny.2 mph63%30.01 "Hg25 mi
10:20 AM59 °FPartly sunny.2 mph63%30.01 "Hg25 mi
9:50 AM57 °FPartly sunny.2 mph67%30.01 "Hg25 mi
9:20 AM57 °FBroken clouds.2 mph67%29.98 "Hg25 mi
8:50 AM55 °FPartly sunny.1 mph72%29.98 "Hg25 mi
8:20 AM54 °FBroken clouds.1 mph72%29.98 "Hg25 mi
7:50 AM52 °FPartly sunny.1 mph77%29.98 "Hg25 mi
7:20 AM54 °FPartly sunny.1 mph72%29.98 "Hg25 mi
6:50 AM48 °FPartly sunny.2 mph100%29.98 "Hg25 mi
5:50 AM46 °FPassing clouds.3 mph87%29.98 "Hg19 mi
4:50 AM46 °FPassing clouds.1 mph93%29.95 "Hg12 mi
10:50 PM
Fri, May 29
54 °FPassing clouds.5 mph77%29.92 "Hg9 mi
9:50 PM55 °FPassing clouds.5 mph72%29.92 "Hg12 mi
8:50 PM61 °FScattered clouds.2 mph59%29.92 "Hg25 mi
7:50 PM64 °FScattered clouds.6 mph49%29.92 "Hg31 mi
7:20 PM68 °FScattered clouds.9 mph35%29.92 "Hg31 mi
6:50 PM68 °FScattered clouds.12 mph38%29.89 "Hg31 mi
6:20 PM70 °FScattered clouds.7 mph38%29.89 "Hg31 mi
5:50 PM72 °FScattered clouds.9 mph38%29.89 "Hg31 mi
5:20 PM70 °FScattered clouds.7 mph38%29.89 "Hg31 mi
4:50 PM70 °FScattered clouds.6 mph35%29.89 "Hg31 mi
4:20 PM72 °FScattered clouds.7 mph33%29.89 "Hg31 mi
3:50 PM73 °FScattered clouds.9 mph25%29.92 "Hg31 mi
3:20 PM73 °FScattered clouds.10 mph27%29.92 "Hg31 mi
2:50 PM73 °FScattered clouds.10 mph23%29.92 "Hg31 mi
2:20 PM73 °FScattered clouds.9 mph22%29.95 "Hg31 mi
1:50 PM73 °FScattered clouds.6 mph25%29.95 "Hg31 mi
1:20 PM72 °FScattered clouds.5 mph25%29.95 "Hg31 mi
Weather by CustomWeather, © 2015

See weather overviewHow to use our weather pages